Date String (YYYY-MM-DD hh:mm:ss) UTC,Instrument flags,absolute air pressure of the measurement (hPa),sample flow rate (lpm),inlet stack bypass flow (lpm),air temperature of the measurement (°C),ambient temperature measured by the external sensor (°C),aerosol sample conditioner tube jacket temperature (°C),OPC LED temperature (°C),internal box temperature (°C),relative humidity of the measurement (%),span deviation,mass concentration of particles derived from Lorenz-Mie calculation of OPC scattering (μg/m³),mass concentration of particles derived from Lorenz-Mie calculation of OPC scattering (μg/m³),mass concentration of particles derived from Lorenz-Mie calculation of OPC scattering (μg/m³)
DateTimeUTC,F1_M11,P_M11,Q1_M11,Q2_M11,T1_M11,T2_M11,T3_M11,T4_M11,T5_M11,U1_M11,ZSPAN_M11,X0_M11,X2_M11,X1_M11
2024-02-05 10:00:00,SystemResetWarning,0829.4,5.01,000.00,018.7,018.3,000.0,026.9,020.3,16.1,0000.0,0001.86,0001.57,0001.45
2024-02-05 10:01:00,SystemResetWarning,0829.4,5.00,000.00,018.6,018.2,000.0,026.9,020.3,16.1,0000.0,0001.86,0001.57,0001.45
2024-02-05 10:02:00,SystemResetWarning,0829.4,5.01,000.00,018.6,018.1,000.0,026.9,020.2,16.2,0000.0,0001.85,0001.57,0001.45
2024-02-05 10:03:00,SystemResetWarning,0829.3,4.99,000.00,018.6,018.1,000.0,026.9,020.2,16.3,0000.0,0001.89,0001.56,0001.44
2024-02-05 10:04:00,SystemResetWarning,0829.3,4.99,000.00,018.6,018.0,000.0,026.9,020.1,16.4,0000.0,0001.93,0001.57,0001.45
2024-02-05 10:05:00,SystemResetWarning,0829.4,4.99,000.00,018.5,017.9,000.0,026.8,020.1,16.4,0000.0,0001.99,0001.62,0001.48
2024-02-05 10:06:00,SystemResetWarning,0829.4,5.01,000.00,018.5,017.9,000.0,026.8,020.1,16.5,0000.0,0002.00,0001.64,0001.52
2024-02-05 10:07:00,SystemResetWarning,0829.5,5.01,000.00,018.5,017.8,000.0,026.8,020.0,16.5,0000.0,0001.99,0001.66,0001.53
2024-02-05 10:08:00,SystemResetWarning,0829.6,5.01,000.00,018.4,017.8,000.0,026.8,020.0,16.5,0000.0,0001.95,0001.65,0001.55
2024-02-05 10:09:00,SystemResetWarning,0829.6,4.99,000.00,018.4,017.8,000.0,026.8,020.0,16.5,0000.0,0002.02,0001.69,0001.57
2024-02-05 10:10:00,SystemResetWarning,0829.6,4.99,000.00,018.4,017.7,000.0,026.8,020.0,16.5,0000.0,0002.01,0001.71,0001.60
2024-02-05 10:11:00,SystemResetWarning,0829.6,4.99,000.00,018.4,017.7,000.0,026.8,020.0,16.4,0000.0,0002.00,0001.72,0001.62
2024-02-05 10:12:00,SystemResetWarning,0829.6,5.01,000.00,018.4,017.7,000.0,026.8,020.0,16.5,0000.0,0002.01,0001.74,0001.64
2024-02-05 10:13:00,SystemResetWarning,0829.5,5.01,000.00,018.4,017.6,000.0,026.9,020.0,16.5,0000.0,0002.02,0001.74,0001.63
2024-02-05 10:14:00,SystemResetWarning,0829.6,5.00,000.00,018.3,017.6,000.0,026.9,020.0,16.5,0000.0,0001.97,0001.73,0001.63
2024-02-05 10:15:00,SystemResetWarning,0829.6,5.00,000.00,018.4,018.0,000.0,027.0,020.3,16.1,0000.0,0001.93,0001.72,0001.63
2024-02-05 10:16:00,SystemResetWarning,0829.7,5.00,000.00,018.6,018.8,000.0,027.1,020.8,15.8,0000.0,0001.92,0001.72,0001.63
2024-02-05 10:17:00,SystemResetWarning,0829.7,5.00,000.00,018.8,019.3,000.0,027.1,021.1,15.6,0000.0,0001.93,0001.71,0001.62
2024-02-05 10:18:00,SystemResetWarning,0829.7,4.99,000.00,018.9,019.2,000.0,027.1,020.9,15.6,0000.0,0001.92,0001.69,0001.59
2024-02-05 10:19:00,SystemResetWarning,0829.6,5.00,000.00,018.9,019.0,000.0,027.0,020.7,15.6,0000.0,0001.90,0001.66,0001.56
2024-02-05 10:20:00,SystemResetWarning,0829.5,5.01,000.00,018.8,018.9,000.0,027.0,020.6,15.7,0000.0,0001.88,0001.65,0001.55
2024-02-05 10:21:00,SystemResetWarning,0829.5,5.01,000.00,018.8,018.7,000.0,027.0,020.5,15.7,0000.0,0001.84,0001.63,0001.53
2024-02-05 10:22:00,SystemResetWarning,0829.4,5.00,000.00,018.8,018.5,000.0,027.0,020.4,15.8,0000.0,0001.85,0001.63,0001.52
2024-02-05 10:23:00,SystemResetWarning,0829.4,5.00,000.00,018.8,018.4,000.0,027.0,020.4,16.0,0000.0,0001.90,0001.64,0001.53
2024-02-05 10:24:00,SystemResetWarning,0829.4,4.99,000.00,018.7,018.3,000.0,027.0,020.3,16.2,0000.0,0001.89,0001.65,0001.53
2024-02-05 10:25:00,SystemResetWarning,0829.4,4.99,000.00,018.7,018.2,000.0,026.9,020.2,16.4,0000.0,0001.95,0001.69,0001.57
2024-02-05 10:26:00,SystemResetWarning,0829.4,5.02,000.00,018.6,018.1,000.0,026.9,020.1,16.6,0000.0,0002.06,0001.79,0001.65
2024-02-05 10:27:00,SystemResetWarning,0829.5,5.00,000.00,018.6,018.0,000.0,026.9,020.0,16.7,0000.0,0002.21,0001.93,0001.79
2024-02-05 10:28:00,SystemResetWarning,0829.5,4.99,000.00,018.5,017.9,000.0,026.9,020.0,16.8,0000.0,0002.39,0002.10,0001.96
2024-02-05 10:29:00,SystemResetWarning,0829.5,4.99,000.00,018.5,017.9,000.0,026.9,020.0,16.8,0000.0,0002.62,0002.32,0002.19
2024-02-05 10:30:00,SystemResetWarning,0829.5,5.00,000.00,018.5,017.8,000.0,026.9,020.0,16.9,0000.0,0003.00,0002.58,0002.40
2024-02-05 10:31:00,SystemResetWarning,0829.5,5.01,000.00,018.4,017.7,000.0,026.9,020.0,17.1,0000.0,0003.38,0002.79,0002.58
2024-02-05 10:32:00,SystemResetWarning,0829.5,5.01,000.00,018.4,017.7,000.0,027.0,020.0,17.2,0000.0,0003.70,0003.02,0002.79
2024-02-05 10:33:00,SystemResetWarning,0829.5,5.00,000.00,018.4,017.7,000.0,027.0,020.0,17.2,0000.0,0004.20,0003.18,0003.02
2024-02-05 10:34:00,SystemResetWarning,0829.5,4.98,000.00,018.4,017.6,000.0,027.0,020.0,17.5,0000.0,0004.54,0003.33,0003.21
2024-02-05 10:35:00,SystemResetWarning,0829.4,5.01,000.00,018.4,017.6,000.0,026.9,020.0,17.8,0000.0,0005.11,0003.57,0003.41
2024-02-05 10:36:00,SystemResetWarning,0829.4,5.01,000.00,018.4,017.6,000.0,026.9,020.0,17.8,0000.0,0006.03,0003.77,0003.59
2024-02-05 10:37:00,SystemResetWarning,0829.5,5.00,000.00,018.3,017.6,000.0,026.9,020.0,17.7,0000.0,0006.84,0004.08,0003.88
2024-02-05 10:38:00,SystemResetWarning,0829.5,4.99,000.00,018.3,017.6,000.0,026.9,020.0,17.6,0000.6,0007.49,0004.53,0004.34
2024-02-05 10:39:00,SystemResetWarning,0829.6,5.00,000.00,018.3,017.6,000.0,026.9,020.0,17.8,0002.6,0007.84,0004.87,0004.66
2024-02-05 10:40:00,SystemResetWarning,0829.5,4.99,000.00,018.3,017.6,000.0,026.9,020.0,17.9,0002.9,0008.17,0005.13,0004.90
2024-02-05 10:41:00,SystemResetWarning,0829.5,5.00,000.00,018.3,017.6,000.0,026.9,020.0,17.9,0002.5,0008.39,0005.36,0005.13
2024-02-05 10:42:00,SystemResetWarning,0829.4,5.00,000.00,018.3,017.6,000.0,026.9,020.0,17.7,0002.2,0008.73,0005.71,0005.49
2024-02-05 10:43:00,SystemResetWarning,0829.4,5.00,000.00,018.3,017.6,000.0,026.9,020.0,17.7,0001.8,0009.13,0006.08,0005.86
2024-02-05 10:44:00,SystemResetWarning,0829.5,5.00,000.00,018.3,017.6,000.0,026.9,020.0,17.6,0002.1,0009.40,0006.46,0006.22
2024-02-05 10:45:00,SystemResetWarning,0829.5,5.01,000.00,018.3,017.6,000.0,026.9,020.0,17.6,0002.0,0009.62,0006.67,0006.40
2024-02-05 10:46:00,SystemResetWarning,0829.5,5.01,000.00,018.3,017.6,000.0,026.9,020.0,17.5,0001.7,0009.78,0006.76,0006.50
2024-02-05 10:47:00,SystemResetWarning,0829.6,4.99,000.00,018.4,018.0,000.0,027.0,020.3,17.4,0001.5,0009.66,0006.91,0006.65
2024-02-05 10:48:00,SystemResetWarning,0829.6,5.00,000.00,018.6,018.8,000.0,027.1,020.8,17.2,0001.5,0009.62,0006.90,0006.63
2024-02-05 10:49:00,SystemResetWarning,0829.7,5.00,000.00,018.7,018.9,000.0,027.0,020.8,17.0,0001.3,0009.51,0006.67,0006.40
2024-02-05 10:50:00,SystemResetWarning,0829.7,5.00,000.00,018.7,018.8,000.0,027.0,020.6,17.0,0001.2,0009.56,0006.56,0006.25
2024-02-05 10:51:00,SystemResetWarning,0829.6,5.00,000.00,018.7,018.7,000.0,026.9,020.5,17.0,0000.7,0009.59,0006.48,0006.18
2024-02-05 10:52:00,SystemResetWarning,0829.6,5.00,000.00,018.7,018.5,000.0,026.9,020.4,16.9,0001.2,0009.79,0006.45,0006.13
2024-02-05 10:53:00,SystemResetWarning,0829.4,5.00,000.00,018.7,018.4,000.0,026.9,020.3,16.8,0001.4,0009.67,0006.32,0006.00
2024-02-05 10:54:00,SystemResetWarning,0829.4,5.00,000.00,018.6,018.3,000.0,026.9,020.3,16.8,0001.5,0009.47,0006.17,0005.86
2024-02-05 10:55:00,SystemResetWarning,0829.3,5.00,000.00,018.6,018.2,000.0,026.9,020.2,16.7,0000.9,0009.31,0005.89,0005.58
2024-02-05 10:56:00,SystemResetWarning,0829.3,5.00,000.00,018.6,018.2,000.0,026.9,020.2,16.7,0000.8,0009.61,0005.67,0005.35
2024-02-05 10:57:00,SystemResetWarning,0829.3,5.00,000.00,018.6,018.1,000.0,026.9,020.1,16.8,0001.2,0009.89,0005.51,0005.16
2024-02-05 10:58:00,SystemResetWarning,0829.4,5.00,000.00,018.5,018.0,000.0,026.9,020.1,16.8,0001.1,0010.18,0005.29,0004.92
2024-02-05 10:59:00,SystemResetWarning,0829.3,4.99,000.00,018.5,018.0,000.0,026.9,020.1,16.8,0001.3,0010.29,0005.11,0004.72
